{"data":{"norad_id":44035,"intl_designator":"2019-007B","name":"GSAT-31","alt_names":[],"object_type":"PAYLOAD","status":"ACTIVE","operator":null,"country":"IND","launch_date":"2019-02-05","launch_site_code":"FRGUI","launch_vehicle":null,"mission":null,"orbit_class":"UNKNOWN","rcs_meters":null,"size_class":null,"mass_kg":null,"dimensions":null,"purposes":["comms"],"wikipedia_slug":null,"has_3d_model":false,"image_url":null,"decayed_at":null,"tle_current":{"epoch":"2026-05-25T03:58:15.953088Z","epoch_age_seconds":53913,"freshness":"FRESH","line1":"1 44035U 19007B   26145.16546242  .00000123  00000+0  00000+0 0  9995","line2":"2 44035   0.0512 105.3487 0001765 249.3397 355.5453  1.00272847 26739","mean_motion":1.00272847,"eccentricity":0.0001765,"inclination_deg":0.0512,"raan_deg":105.3487,"arg_perigee_deg":249.3397,"mean_anomaly_deg":355.5453,"bstar":0,"rev_number":2673,"period_min":1436.0816941799,"perigee_km":35778.855224022,"apogee_km":35793.739269311,"semimajor_km":42164.434246667,"source":"CELESTRAK","updated_at":"2026-05-25T13:38:14.061522Z"}}}